Temperature
12 11 11 10 9 9 8 8 7 7 6 6 6 5 5 5 5 5 4 4 4 4 4 3 3 3 3 2 2 2 1 1 0 0 0 1 1 1 1 1 1 1 1
10 10 9 9 8 8 7 7 6 6 5 5 5 5 4 4 4 4 4 4 3 3 3 3 2 2 2 1 1 1 1 0 0 -0 -0 0 1 1 1 1 1 1 1
9 8 8 7 7 6 6 6 5 5 5 5 4 4 4 4 3 3 3 3 2 2 2 2 2 1 1 1 1 0 0 0 -0 -0 -0 0 0 1 0 1 1 1 1
7 7 7 6 6 5 5 5 5 4 4 4 4 3 3 3 3 2 2 2 1 1 1 1 1 1 0 0 0 -0 -0 -0 -0 -0 -0 -0 0 0 0 0 0 0 0
6 6 6 5 5 5 4 4 4 4 3 3 3 3 2 2 2 1 1 1 1 1 1 1 1 0 0 -0 -0 -0 -0 -0 -0 -0 -0 -0 -0 -0 -0 -0 -0 -0 0
6 5 5 4 4 4 4 3 3 3 3 2 2 2 1 1 1 0 0 0 0 0 0 0 0 0 0 -0 -0 -0 -0 -0 -0 -0 -0 -0 -0 -0 -0 -0 -0 -0 -0
5 4 4 4 4 3 3 3 2 2 2 1 1 1 0 0 -0 -0 -0 -0 -0 -0 -0 -0 0 0 -0 -0 -0 0 0 -0 -0 -0 -0 -0 -0 -0 -0 -0 -0 -0 -0
4 4 3 3 3 3 2 2 2 1 1 1 0 0 -0 -0 -0 -0 -0 -0 -0 -0 -0 -0 -0 -0 -0 -0 -0 -0 0 0 -0 -0 -1 -0 -0 -0 -0 -0 -0 -0 -0
3 3 3 3 2 2 2 1 1 1 0 0 -0 -0 -1 -1 -1 -1 -1 -1 -0 -0 -0 -0 -0 -0 -0 -0 -0 -0 -0 0 -0 -0 -0 -0 -0 -1 -1 -1 -1 -0 -0
3 3 2 2 2 1 1 1 0 0 -0 -0 -1 -1 -1 -1 -1 -1 -1 -1 -1 -1 -0 -0 -0 -0 -0 -0 -0 -0 -0 -0 -0 -0 -0 -0 -1 -1 -1 -1 -1 -1 -1
2 2 2 2 1 1 1 1 0 -0 -0 -1 -1 -1 -1 -2 -2 -2 -2 -1 -1 -1 -1 -0 -0 -0 -0 -0 -0 -0 -0 -0 -0 -0 -0 -1 -1 -1 -0 -0 -0 -0 -0
2 2 2 1 1 1 1 0 -0 -0 -1 -1 -1 -1 -2 -2 -2 -2 -2 -2 -1 -1 -1 -1 -1 -1 -0 -0 -0 -0 -0 -0 -0 -0 -1 -1 -1 -1 -1 -0 -0 -0 -0
2 2 2 1 1 1 1 0 -0 -1 -1 -1 -1 -2 -2 -2 -2 -2 -2 -1 -1 -1 -1 -1 -1 -1 -0 -0 -0 -0 -0 -0 -0 -0 -1 -1 -1 -1 -1 -0 -0 -0 -0
2 2 2 2 1 1 0 0 -0 -1 -1 -1 -2 -2 -2 -2 -2 -2 -2 -1 -1 -1 -1 -1 -1 -0 -0 -0 0 0 0 -0 -0 -0 -1 -1 -1 -1 -1 -1 -0 -0 -0
2 2 2 2 1 1 0 -0 -1 -1 -1 -2 -2 -2 -2 -2 -2 -2 -2 -2 -1 -1 -1 -1 -0 -0 0 0 0 0 0 0 -0 -0 -1 -1 -1 -1 -1 -1 -1 -1 -1
2 2 2 2 1 1 0 -0 -1 -1 -1 -2 -2 -2 -2 -2 -2 -2 -2 -2 -1 -1 -1 -1 -0 -0 -0 0 0 0 0 0 -0 -0 -1 -1 -1 -1 -1 -1 -1 -1 -1
3 2 2 2 1 1 0 -0 -1 -1 -1 -2 -2 -2 -2 -2 -2 -2 -2 -2 -1 -1 -1 -1 -1 -0 -0 0 0 0 0 0 0 -0 -0 -1 -1 -1 -1 -1 -1 -1 -1
3 2 2 2 1 1 -0 -0 -1 -1 -1 -1 -2 -2 -2 -2 -2 -2 -2 -2 -1 -1 -1 -1 -0 -0 0 0 1 1 1 1 0 0 -0 -0 -1 -1 -1 -1 -1 -1 -1
3 2 2 2 1 0 -0 -1 -1 -1 -2 -2 -2 -2 -2 -2 -2 -2 -2 -2 -1 -1 -1 -1 -0 -0 0 1 1 1 1 1 1 1 0 -0 -0 -1 -1 -1 -1 -2 -2
3 2 2 1 1 0 -0 -1 -1 -1 -1 -2 -2 -2 -2 -2 -2 -2 -1 -1 -1 -1 -1 -1 -0 0 0 1 1 1 1 1 1 1 1 0 -0 -0 -1 -1 -2 -2 -2
3 2 2 1 1 0 -0 -1 -1 -1 -1 -2 -2 -2 -2 -2 -2 -2 -1 -1 -1 -1 -1 -0 -0 0 1 1 1 2 2 2 2 1 1 1 0 -0 -1 -1 -1 -2 -2
3 2 2 1 1 0 -0 -1 -1 -1 -1 -2 -2 -1 -1 -1 -2 -1 -1 -1 -1 -1 -0 -0 0 0 1 1 2 2 2 2 2 2 1 1 1 0 -0 -1 -1 -1 -2
2 2 1 1 1 0 -0 -1 -1 -1 -1 -2 -2 -1 -1 -1 -1 -1 -1 -1 -1 -0 -0 0 0 1 1 1 2 2 2 2 2 2 2 2 1 1 1 0 -0 -0 -1
2 1 1 1 0 -0 -0 -1 -1 -1 -1 -1 -2 -2 -1 -1 -1 -1 -1 -1 -1 -0 -0 0 1 1 1 2 2 2 2 2 2 2 2 2 2 2 1 1 1 0 0
1 1 1 0 0 -0 -1 -1 -1 -1 -1 -1 -2 -2 -1 -1 -1 -1 -1 -1 -0 -0 0 1 1 1 1 2 2 2 2 2 3 3 2 2 2 2 2 2 1 1 1
1 1 0 0 -0 -0 -1 -1 -1 -1 -1 -2 -2 -2 -1 -1 -1 -1 -1 -1 -0 0 0 1 1 1 2 2 2 2 3 3 3 3 3 3 3 2 2 2 2 2 2
Wind_Speed
12 11 12 11 10 11 10 9 8 8 7 7 7 7 7 7 6 6 6 5 5 4 4 4 5 4 4 5 5 5 6 6 12 13 10 11 13 15 16 19 19 18 18
11 12 11 11 11 11 10 9 8 8 7 7 7 7 7 6 5 6 5 5 4 5 5 5 6 6 7 6 6 7 7 8 9 15 13 12 14 15 15 15 15 16 16
11 12 11 11 11 10 9 8 8 8 7 7 7 6 5 4 4 4 4 3 4 4 5 6 7 7 8 8 8 8 8 9 9 11 14 12 11 12 13 13 14 12 14
11 11 11 10 9 9 8 8 7 7 6 6 6 5 4 3 3 3 3 4 5 6 7 7 8 8 9 10 9 9 9 10 11 11 12 12 11 11 10 10 11 10 11
11 11 9 8 8 8 8 7 7 7 6 5 5 4 3 2 3 3 3 5 6 8 9 9 9 12 12 10 10 10 10 10 10 10 11 11 11 10 10 9 11 10 12
10 9 8 8 8 8 7 7 7 7 6 5 5 4 4 4 6 7 6 5 7 8 10 10 11 10 12 14 15 16 15 13 12 11 10 12 13 12 10 10 10 10 7
9 8 8 7 8 7 7 7 7 5 5 5 5 4 4 5 8 9 10 7 8 8 9 10 9 10 12 10 13 16 16 17 16 12 13 13 13 12 11 11 9 10 10
7 7 7 7 7 6 7 6 5 4 4 3 4 4 3 5 8 9 12 9 8 9 10 10 10 11 10 12 12 13 13 13 13 11 11 12 12 11 10 9 10 9 9
6 6 6 6 6 6 6 5 4 3 4 3 3 4 4 6 9 10 11 8 8 11 11 10 10 10 13 14 12 12 13 12 13 14 15 14 15 14 11 7 7 7 8
5 5 5 5 5 5 4 3 3 3 3 3 4 4 5 6 9 11 12 7 8 10 10 11 11 12 15 15 11 10 12 12 12 13 12 11 10 10 10 7 6 7 6
4 5 5 4 4 3 3 3 3 3 4 5 5 5 6 7 9 11 13 8 8 9 9 9 9 14 16 16 12 9 11 13 11 10 9 9 8 7 7 6 6 6 6
4 4 3 3 2 3 3 3 3 3 4 5 6 7 7 7 8 11 14 13 11 8 8 9 10 15 16 15 11 12 14 11 7 8 8 7 7 7 7 8 7 6 6
4 3 2 2 2 2 2 2 2 2 3 4 5 7 8 8 8 11 13 15 15 9 8 13 14 14 13 10 11 14 11 8 7 7 8 7 6 7 7 7 7 6 6
2 1 1 1 2 2 2 1 1 1 2 4 5 6 8 8 8 9 10 10 12 11 10 11 13 12 10 10 10 9 7 7 7 7 7 7 7 7 6 6 5 6 5
1 0 1 1 1 1 1 1 1 2 2 3 4 5 7 8 9 13 10 8 8 9 9 6 6 8 9 9 9 8 8 8 7 7 7 7 7 7 6 6 5 6 6
0 1 0 0 0 1 1 2 3 3 5 6 5 5 5 7 12 13 13 13 13 13 7 6 7 8 9 9 9 8 8 8 8 7 6 7 7 7 7 6 6 7 7
1 1 0 0 0 0 1 2 4 5 6 6 8 8 8 11 11 12 13 13 10 10 6 6 7 8 8 8 8 8 8 8 7 7 6 6 6 7 7 7 8 7 8
1 1 1 1 0 0 1 1 1 3 5 5 6 8 11 12 11 11 12 10 7 7 6 7 7 8 8 8 9 8 8 8 7 7 7 7 7 6 7 7 8 9 8
1 1 1 1 1 1 1 1 2 2 3 4 5 6 10 11 10 10 9 6 6 7 7 7 7 8 8 8 8 8 8 7 7 7 6 7 7 7 7 7 8 10 9
1 2 3 2 1 1 1 1 2 2 3 4 5 6 7 6 5 7 6 6 6 6 7 7 8 8 8 8 8 8 8 7 8 6 6 6 6 7 8 9 9 8 9
1 2 3 2 1 1 1 1 1 2 3 4 5 6 8 5 6 6 6 6 6 6 7 7 8 8 8 8 8 9 9 7 7 6 6 6 6 7 7 8 9 9 9
2 2 2 2 1 1 1 1 1 2 3 4 5 6 9 6 6 6 6 6 6 6 6 6 6 6 7 8 8 8 8 7 7 6 6 5 5 6 7 8 8 9 9
3 3 3 2 2 2 2 2 1 2 3 4 5 5 6 6 6 6 7 7 7 7 9 8 7 7 10 9 8 7 6 7 6 5 4 4 5 6 6 8 9 9 10
4 4 3 3 2 2 2 2 2 2 3 4 5 5 6 6 6 7 7 7 7 8 10 10 9 11 13 12 11 9 9 9 7 4 3 4 5 6 6 7 7 8 8
4 4 3 2 2 2 2 2 3 3 3 4 5 5 6 6 6 7 7 7 8 9 11 12 12 12 14 14 14 13 14 12 9 5 4 4 6 6 6 6 6 6 7
4 4 3 2 2 2 2 2 3 3 4 4 5 5 5 6 6 7 7 8 8 9 11 12 15 15 15 15 16 17 15 13 11 9 6 5 5 5 5 4 5 5 5
Wind_Direction
77 81 83 83 85 86 86 86 86 84 85 88 89 87 81 76 76 78 73 59 50 28 11 354 335 321 311 307 299 290 280 275 288 297 291 289 286 285 289 288 286 283 281
79 80 79 78 78 79 79 78 81 81 80 86 90 91 89 85 78 75 63 48 31 9 349 336 325 322 309 302 296 290 286 277 283 298 301 298 290 287 286 285 287 285 281
80 80 78 76 76 75 74 73 76 79 78 82 89 92 91 88 77 66 55 32 8 344 329 320 314 313 307 303 297 290 287 288 283 291 298 298 294 291 291 288 287 284 284
81 80 78 76 77 77 76 74 74 78 81 82 85 85 83 74 60 42 23 3 344 333 323 313 308 302 294 295 296 293 294 294 294 293 295 299 297 293 289 292 295 290 288
83 81 79 78 78 76 73 71 70 70 76 80 79 66 50 45 33 18 360 347 337 330 324 318 311 307 307 310 310 309 307 301 300 297 297 299 299 301 299 294 293 295 289
82 81 81 80 78 75 73 69 68 64 62 62 54 42 29 25 15 12 2 341 331 324 321 320 316 309 313 316 313 312 309 305 304 300 301 302 303 301 298 297 297 298 295
79 79 78 80 77 71 73 68 63 57 56 50 36 29 19 6 13 6 355 345 328 319 316 315 315 313 315 311 312 313 308 302 298 299 299 301 302 303 301 298 296 297 295
79 80 81 82 80 72 67 60 51 46 44 34 26 18 9 2 3 358 351 343 327 319 315 311 309 311 314 319 319 312 308 305 301 298 291 294 296 298 297 296 297 296 290
79 81 83 86 82 71 61 49 39 40 34 23 13 9 3 349 349 350 353 337 328 324 320 318 317 317 315 320 321 314 312 312 311 303 296 293 293 295 297 300 300 304 308
81 86 83 82 83 76 64 49 36 43 33 20 13 3 354 342 338 345 350 339 331 327 323 322 321 319 318 321 319 313 313 317 318 318 314 310 306 304 304 300 301 303 307
84 86 79 75 83 83 70 55 51 46 32 17 3 349 346 341 338 341 345 345 331 323 321 321 319 318 320 320 319 310 307 311 312 313 315 314 315 315 315 312 299 295 298
80 80 71 58 62 93 88 67 52 42 29 11 358 352 346 342 339 338 339 339 335 323 316 316 314 317 321 322 323 318 319 321 319 323 325 325 326 329 325 318 309 299 287
85 80 71 60 50 76 96 77 47 32 23 5 358 350 342 339 338 337 337 335 336 334 318 317 321 326 329 328 325 326 329 331 330 333 337 337 333 329 328 327 325 324 312
102 88 86 64 43 52 70 79 47 3 360 353 347 342 338 336 341 344 339 334 334 335 328 324 324 327 333 330 329 333 336 334 336 341 342 338 336 341 347 346 341 343 345
136 296 333 27 61 46 23 308 300 270 267 309 318 320 328 331 329 328 331 331 330 327 324 330 343 343 346 344 342 341 343 348 350 352 352 354 355 358 358 353 356 0 8
147 312 321 354 20 30 2 345 331 318 323 321 314 315 310 307 317 329 336 336 336 338 344 346 344 343 341 341 344 347 349 354 354 354 357 2 5 8 9 9 12 19 22
209 247 253 282 253 2 12 359 345 345 353 354 345 344 339 333 336 340 341 337 340 351 358 348 344 340 341 345 348 349 348 348 351 356 2 5 8 11 15 18 20 22 25
226 233 185 192 173 94 38 14 354 346 346 343 338 338 344 343 342 346 346 348 354 358 353 346 343 341 343 347 347 346 345 347 354 360 6 9 12 14 21 26 27 27 27
212 201 165 147 123 100 69 37 7 355 348 341 341 344 342 339 339 348 354 0 350 349 348 347 343 342 343 344 344 344 345 346 351 357 7 12 16 23 29 32 33 28 32
227 190 160 141 118 99 70 32 8 360 351 349 350 347 341 342 350 349 351 350 351 348 346 344 342 342 342 342 343 345 347 350 353 359 5 15 23 35 40 41 41 40 40
183 156 141 121 114 117 93 29 359 353 350 349 346 343 351 348 348 346 348 351 350 346 343 340 339 342 343 343 343 345 347 349 354 358 5 17 31 42 48 51 50 49 49
141 132 120 114 105 101 97 56 17 5 360 357 350 349 355 2 355 352 352 351 348 343 342 340 339 341 339 338 338 339 342 347 353 358 5 19 36 46 54 56 55 54 56
118 115 102 91 88 91 81 52 27 15 8 4 359 0 1 1 359 357 355 353 350 349 351 351 347 346 345 339 335 333 332 332 332 336 358 27 44 51 57 60 62 65 60
107 107 103 96 88 81 68 48 34 29 21 14 8 5 1 359 359 358 356 352 351 352 355 355 351 347 347 348 346 345 341 335 334 351 28 58 63 64 67 68 68 69 68
97 97 95 92 90 82 72 61 47 36 28 20 12 6 1 1 0 358 355 353 352 353 355 356 355 351 349 350 351 350 353 3 18 36 64 75 76 74 74 75 73 74 71
90 90 86 84 84 84 81 70 57 50 38 27 17 9 5 3 360 357 355 356 353 352 353 355 354 354 355 355 353 357 7 20 33 49 68 77 77 76 79 77 77 72 72
Height
1504 1506 1508 1510 1511 1512 1514 1515 1517 1518 1519 1520 1521 1521 1521 1520 1520 1519 1518 1517 1516 1514 1512 1510 1508 1505 1503 1501 1499 1496 1493 1489 1482 1478 1476 1474 1471 1468 1465 1461 1458 1454 1451
1506 1508 1509 1511 1512 1513 1515 1517 1518 1519 1520 1520 1520 1520 1519 1519 1518 1516 1515 1514 1512 1510 1508 1505 1503 1500 1498 1496 1493 1490 1488 1484 1479 1472 1469 1466 1463 1460 1457 1453 1450 1447 1444
1509 1510 1511 1512 1514 1515 1517 1518 1519 1519 1519 1519 1519 1518 1517 1516 1515 1514 1512 1510 1508 1506 1503 1501 1498 1495 1493 1491 1488 1485 1482 1478 1474 1469 1463 1460 1457 1454 1450 1446 1443 1439 1436
1511 1512 1513 1514 1516 1517 1518 1519 1519 1519 1519 1518 1517 1517 1516 1514 1513 1511 1510 1508 1505 1503 1500 1498 1495 1492 1489 1486 1482 1480 1476 1473 1469 1464 1459 1455 1451 1447 1444 1439 1435 1432 1429
1513 1515 1516 1517 1518 1518 1519 1519 1519 1518 1518 1517 1516 1515 1514 1512 1511 1509 1507 1505 1502 1500 1497 1494 1491 1488 1485 1482 1479 1475 1472 1468 1464 1459 1454 1450 1445 1441 1438 1434 1429 1425 1422
1516 1517 1518 1518 1519 1519 1519 1519 1518 1518 1517 1516 1515 1514 1512 1510 1508 1507 1505 1502 1500 1496 1493 1490 1487 1484 1481 1479 1476 1472 1469 1464 1459 1455 1450 1445 1440 1437 1432 1428 1424 1420 1415
1518 1519 1519 1519 1519 1520 1520 1519 1518 1518 1517 1515 1514 1513 1511 1509 1507 1505 1503 1500 1497 1493 1490 1486 1483 1481 1478 1475 1471 1468 1464 1460 1456 1452 1446 1441 1436 1432 1427 1423 1419 1416 1412
1520 1520 1521 1521 1521 1521 1520 1519 1518 1517 1516 1515 1513 1511 1509 1507 1505 1502 1500 1497 1494 1491 1487 1484 1481 1478 1475 1471 1467 1463 1459 1456 1452 1447 1442 1437 1432 1428 1424 1420 1416 1411 1407
1522 1522 1522 1523 1522 1522 1521 1520 1519 1517 1516 1514 1512 1510 1508 1506 1503 1500 1497 1494 1491 1488 1485 1482 1479 1475 1472 1469 1464 1460 1455 1451 1447 1443 1438 1433 1428 1424 1420 1416 1412 1408 1404
1524 1524 1524 1524 1524 1523 1522 1521 1519 1517 1515 1513 1511 1509 1506 1504 1501 1498 1495 1491 1488 1485 1483 1480 1477 1473 1470 1466 1462 1457 1452 1447 1443 1438 1433 1429 1425 1421 1417 1413 1409 1406 1402
1526 1526 1526 1526 1525 1524 1523 1521 1519 1517 1515 1513 1510 1508 1505 1503 1500 1497 1494 1490 1487 1483 1480 1477 1474 1471 1467 1464 1460 1455 1450 1445 1440 1435 1430 1426 1422 1418 1414 1411 1407 1404 1400
1528 1528 1527 1527 1526 1525 1523 1521 1519 1517 1515 1512 1510 1507 1505 1502 1499 1495 1492 1489 1486 1483 1479 1476 1473 1469 1465 1462 1458 1454 1449 1444 1439 1434 1429 1424 1420 1416 1412 1409 1405 1402 1399
1529 1529 1529 1528 1527 1525 1523 1521 1519 1517 1514 1512 1509 1506 1503 1501 1497 1494 1491 1488 1485 1482 1479 1475 1472 1468 1465 1461 1457 1452 1448 1443 1438 1433 1428 1424 1419 1415 1411 1408 1405 1401 1398
1531 1530 1529 1528 1527 1525 1523 1521 1519 1517 1514 1511 1508 1505 1502 1499 1496 1493 1490 1487 1484 1481 1478 1475 1472 1468 1465 1461 1457 1452 1448 1443 1438 1434 1429 1425 1420 1416 1412 1408 1405 1401 1398
1531 1531 1529 1528 1526 1525 1523 1521 1519 1516 1514 1511 1508 1505 1502 1498 1496 1493 1489 1486 1483 1480 1477 1475 1472 1468 1464 1461 1457 1453 1448 1444 1439 1435 1431 1426 1422 1417 1414 1410 1407 1403 1400
1532 1531 1529 1528 1526 1524 1523 1521 1519 1516 1514 1511 1508 1505 1502 1499 1496 1493 1489 1486 1484 1481 1478 1475 1472 1469 1465 1462 1458 1454 1450 1446 1441 1437 1433 1429 1424 1420 1417 1413 1410 1407 1403
1532 1531 1529 1528 1526 1524 1523 1521 1519 1517 1514 1511 1508 1505 1502 1499 1496 1493 1490 1487 1484 1482 1479 1477 1474 1470 1467 1464 1460 1457 1453 1449 1444 1440 1436 1432 1428 1424 1421 1417 1414 1411 1408
1532 1530 1529 1527 1526 1524 1523 1521 1518 1516 1514 1511 1508 1505 1502 1499 1496 1493 1490 1488 1485 1483 1480 1478 1475 1472 1469 1466 1463 1459 1456 1452 1448 1443 1439 1435 1431 1428 1424 1421 1419 1416 1413
1531 1530 1528 1527 1526 1524 1523 1521 1519 1517 1514 1512 1509 1506 1503 1500 1497 1494 1492 1489 1487 1484 1482 1480 1477 1474 1472 1469 1466 1462 1459 1455 1451 1447 1443 1439 1435 1432 1429 1426 1423 1421 1418
1530 1529 1528 1527 1526 1524 1523 1521 1520 1517 1515 1512 1509 1507 1504 1501 1498 1496 1493 1491 1489 1486 1484 1482 1479 1477 1474 1472 1469 1466 1462 1459 1455 1451 1447 1444 1440 1437 1433 1431 1428 1426 1423
1529 1528 1528 1527 1526 1525 1523 1522 1520 1518 1516 1514 1511 1508 1505 1502 1500 1498 1495 1493 1491 1489 1486 1484 1482 1480 1477 1475 1472 1469 1466 1462 1459 1455 1452 1448 1445 1442 1439 1436 1434 1431 1430
1529 1528 1528 1527 1526 1525 1524 1523 1521 1519 1517 1515 1512 1510 1507 1505 1502 1500 1497 1495 1493 1491 1489 1487 1485 1483 1480 1478 1475 1472 1469 1466 1463 1460 1457 1454 1451 1448 1445 1443 1440 1438 1436
1529 1528 1528 1527 1527 1526 1525 1523 1522 1520 1518 1516 1514 1511 1509 1507 1504 1502 1500 1498 1495 1493 1491 1489 1488 1486 1484 1481 1479 1476 1474 1471 1468 1465 1462 1460 1457 1455 1452 1450 1448 1446 1444
1530 1529 1529 1528 1527 1527 1526 1524 1523 1521 1520 1517 1515 1513 1511 1509 1507 1504 1502 1500 1498 1496 1494 1492 1491 1489 1487 1485 1483 1480 1478 1475 1473 1471 1469 1466 1464 1462 1460 1457 1455 1453 1452
1531 1530 1530 1529 1528 1528 1527 1525 1524 1523 1521 1519 1517 1515 1513 1511 1509 1507 1505 1503 1501 1499 1497 1496 1494 1492 1490 1488 1486 1484 1482 1480 1478 1476 1474 1472 1470 1468 1467 1465 1463 1461 1460
1532 1532 1531 1530 1529 1528 1528 1527 1525 1524 1522 1520 1518 1517 1515 1513 1511 1510 1508 1506 1504 1503 1501 1499 1497 1495 1494 1492 1490 1488 1487 1485 1483 1481 1479 1478 1476 1474 1473 1471 1470 1468 1467